Location: Bannatyne
(13.0833°N, 59.5333°W)
Time: 14:30:27
(UTC+00:00)

Transit 4A - Pass Details

Date: 20 January 2021
Orbit: 866 x 978 km, 66.8° (Epoch: 05 March)

Event Time Altitude Azimuth Distance (km) Brightness Sun altitude
Rises 09:00:27 0° 359° (N) 3,551 10.8 -20.4°
Reaches altitude 10° 09:03:31 10° 13° (NNE) 2,589 10.2 -19.7°
Maximum altitude 09:08:13 24° 65° (ENE) 1,775 9.9 -18.6°
Drops below altitude 10° 09:12:48 10° 117° (ESE) 2,534 11.4 -17.5°
Sets 09:15:45 0° 131° (SE) 3,459 12.1 -16.8°
